Location: Romney Marsh
(51.0333°N, 0.9167°E)
Time: 01:12:42
(UTC+00:00)

Daily predictions for brighter satellites

Satellite Brightness Start Highest point End
(mag) Time Altitude Azimuth Time Altitude Azimuth Time Altitude Azimuth
SL-16 R/B 4.5 00:24:54 22° NE 00:24:54 22° NE 00:29:13 10° N
Cosmos 2082 Rocket 4.4 00:50:59 22° NNE 00:50:59 22° NNE 00:52:51 10° NNE
Cosmos 2219 Rocket 4.3 01:06:36 10° NNW 01:09:03 22° N 01:09:03 22° N
ATLAS 3B R/B 4.3 01:09:05 10° NW 01:12:35 30° NW 01:12:35 30° NW
USA 215 4.3 01:11:55 10° E 01:16:10 40° ENE 01:16:10 40° ENE
ATLAS 2AS CENTAUR R/B 3.7 01:22:05 43° ENE 01:22:05 43° ENE 01:26:59 10° NE
Resurs 1-4 Rocket 3.8 01:41:00 10° NNE 01:43:37 29° NNE 01:43:37 29° NNE
NOSS 3-1 (A) 4.1 01:55:41 72° NNE 01:55:52 72° NE 02:04:26 10° SE
USA 281 3.8 02:01:01 10° NE 02:07:16 49° ESE 02:07:16 49° ESE
SL-16 R/B 3.5 02:10:00 40° NNW 02:10:00 40° NNW 02:13:45 10° NNW
ADEOS II 3.3 02:03:15 10° NNE 02:06:36 38° NE 02:06:36 38° NE
CZ-2D R/B 3.3 02:08:17 10° NNE 02:11:32 38° NNE 02:11:32 38° NNE
CZ-2C R/B 3.8 02:19:07 37° N 02:19:07 37° N 02:22:26 10° N
MSX 4.5 02:12:59 10° NNE 02:17:14 51° NNE 02:17:14 51° NNE
IDEFIX/ARIANE 42P 3.8 02:16:47 10° NNE 02:19:53 36° N 02:19:53 36° N
Cosmos 2237 Rocket 4.2 02:19:15 10° NNW 02:23:59 26° NE 02:28:42 10° E
Lacrosse 5 rocket 3.8 02:31:30 19° ENE 02:31:30 19° ENE 02:32:44 10° ENE
Lacrosse 4 Rocket 4.0 02:33:06 16° N 02:33:06 16° N 02:34:32 10° NNE
BREEZE-M DEB (TANK) 4.4 02:29:46 64° WSW 02:31:33 84° S 03:02:05 10° E
Cosmos 2082 Rocket 3.8 02:32:50 25° NNW 02:32:50 25° NNW 02:36:38 10° NNE
ATLAS CENTAUR R/B 3.4 02:34:10 75° WNW 02:34:48 80° NNW 02:47:02 10° ENE
FENGYUN 3A 3.8 02:40:01 10° NNE 02:44:55 68° ENE 02:44:55 68° ENE
ATLAS 5 CENTAUR R/B 3.8 02:46:58 17° N 02:46:58 17° N 02:49:58 10° NE
COSMOS 2428 3.0 02:41:46 10° NNW 02:47:28 66° ENE 02:53:08 10° SE
Timation 1 Rocket 4.3 02:49:01 77° ESE 02:49:01 77° ESE 02:54:58 10° NE
CZ-2C R/B 3.9 02:50:58 10° NNE 02:55:13 31° E 02:56:49 25° SE
Cosmos 2219 Rocket 4.5 02:50:19 10° NNW 02:50:40 12° NW 02:50:40 12° NW
ALOS 2.7 02:52:23 10° NNE 02:56:20 58° NE 02:56:20 58° NE
USA 215 3.2 02:54:29 10° ESE 03:01:04 87° NNE 03:03:31 43° WNW
Cosmos 1842 Rocket 4.1 03:09:35 55° NNE 03:09:35 55° NNE 03:13:06 10° N
Cosmos 2084 Rocket 4.5 03:11:36 38° NNE 03:11:36 38° NNE 03:14:13 10° NE
ATLAS 2AS CENTAUR R/B 3.2 03:09:31 45° WNW 03:11:04 52° NW 03:18:01 10° NE
Meteor 1-26 Rocket 4.2 03:11:34 68° WNW 03:11:34 68° WNW 03:17:07 10° N
Cosmos 1655 Rocket 3.9 03:13:15 63° SW 03:14:16 75° WNW 03:20:42 10° N
Cosmos 1833 4.1 03:14:15 67° WNW 03:14:19 67° WNW 03:19:57 10° NNE
SL-08 ROCKET BODY 4.3 03:16:48 62° SW 03:17:48 77° W 03:23:53 10° N
CZ-2C R/B 3.2 03:12:41 10° NNE 03:18:30 84° ESE 03:19:54 53° S
Thor Agena Rocket 3.4 03:15:46 10° NNE 03:21:04 77° WNW 03:21:27 72° WSW
Meteor 2-12 Rocket 4.4 03:20:51 60° WSW 03:21:44 68° WNW 03:27:54 10° N
Resurs 1-4 Rocket 3.5 03:21:28 10° N 03:24:40 23° NW 03:24:40 23° NW
Cosmos 1743 Rocket 3.6 03:22:07 10° N 03:26:28 74° ENE 03:27:40 46° SSE
Meteor 1-11 Rocket 4.1 03:21:36 10° N 03:27:30 69° ENE 03:33:26 10° SSE
Meteor 1-14 Rocket 4.2 03:22:13 10° NNW 03:28:11 66° W 03:30:01 44° SSW
Cosmos 1805 Rocket 3.6 03:24:30 10° N 03:28:52 74° E 03:30:45 33° SSE
Cosmos 1980 4.1 03:24:57 10° NNW 03:30:34 61° NE 03:36:10 10° SE
USA 229 DEB 3.8 03:23:23 10° NW 03:30:44 78° SW 03:38:42 10° SE
USA 229 3.8 03:23:29 10° NW 03:30:49 78° SW 03:38:46 10° SE
Cosmos 1867 4.2 03:33:23 38° S 03:33:23 38° S 03:36:55 10° SSE
ATLAS CENTAUR R/B 3.4 03:34:46 13° NNW 03:37:05 22° NNE 03:39:56 10° E
Sich 1 3.0 03:33:20 10° N 03:37:42 83° E 03:41:10 16° SSE
Meteor 2-6 Rocket 4.0 03:38:03 48° SSW 03:39:36 76° WNW 03:45:02 10° N
GP-B 3.2 03:38:17 22° SSE 03:41:03 75° E 03:45:29 10° N
Cosmos 1244 Rocket 4.5 03:39:43 16° S 03:44:50 86° E 03:51:13 10° N
YAOGAN 6 2.8 03:41:49 10° NNE 03:45:12 62° ESE 03:45:35 56° SE
BlueWalker 3 4.0 03:48:24 17° SSE 03:48:24 17° SSE 03:49:32 10° SSE
NOSS 3-1 (A) 4.4 03:43:24 28° WNW 03:46:44 41° WSW 03:54:44 10° S
ADEOS II 3.3 03:43:31 10° N 03:47:29 25° NW 03:47:29 25° NW
Dummy Sat-01 4.5 03:44:53 10° N 03:48:29 79° NW 03:48:29 79° NW
Meteor 1-10 Rocket 4.2 03:44:45 20° S 03:48:45 82° E 03:54:20 10° NNE
IRS-1D 3.5 03:46:26 10° NNE 03:51:45 74° WNW 03:54:06 34° SSW
USA 281 3.6 03:45:41 10° NNE 03:51:52 46° NW 03:54:08 34° W
SL-16 R/B 4.3 03:55:06 13° NW 03:55:06 13° NW 03:56:13 10° NW
CZ-2D R/B 3.8 03:49:28 10° NNW 03:52:50 18° NW 03:52:50 18° NW
Envisat 3.0 03:48:53 10° NNE 03:54:00 84° ESE 03:57:47 18° SSW
CZ-2C R/B 4.4 04:00:38 16° NW 04:00:38 16° NW 04:02:04 10° NW
IDEFIX/ARIANE 42P 4.4 03:57:46 10° NNW 04:00:39 15° NW 04:00:39 15° NW
Cosmos 2297 Rocket 3.1 03:55:53 10° S 04:01:15 47° ESE 04:06:40 10° NE
Cosmos 2221 4.4 04:03:39 16° NW 04:03:39 16° NW 04:05:27 10° NNW
Cosmos 1536 2.7 04:01:53 10° NNW 04:05:42 57° W 04:07:16 32° SSW
Lacrosse 5 rocket 1.6 04:06:40 42° WNW 04:07:36 52° NNW 04:11:24 10° NE
Cosmos 1125 Rocket 3.6 04:06:14 35° WSW 04:08:06 53° WNW 04:13:13 10° NNE
Cosmos 2237 Rocket 2.1 04:03:00 10° NNW 04:08:44 81° WSW 04:14:23 10° SSE
METEOR-M 4.2 04:05:24 10° N 04:10:40 59° WNW 04:13:57 23° SW
Cosmos 2082 Rocket 4.5 04:16:30 10° NNW 04:18:09 11° NNW 04:19:47 10° N
SL-16 R/B 3.2 04:12:43 10° NNW 04:18:16 48° NE 04:23:45 10° SE
Okean 1 3.2 04:16:20 10° S 04:20:10 84° E 04:24:03 10° NNE
Cosmos 1378 4.1 04:21:27 27° WNW 04:21:27 27° WNW 04:24:06 10° N
Cosmos 1726 2.6 04:18:24 10° N 04:21:49 56° ENE 04:25:10 10° SSE
H-2A R/B 3.6 04:19:18 10° NNE 04:22:41 44° E 04:26:02 10° S
SL-27 R/B 4.4 04:23:28 14° NW 04:23:28 14° NW 04:24:43 10° NNW
ERS-2 4.3 04:21:28 10° NE 04:24:04 23° E 04:26:39 10° SSE
Cosmos 1975 3.9 04:20:25 10° N 04:24:14 47° ENE 04:28:05 10° SSE
COBE Rocket 3.8 04:21:40 10° N 04:26:28 67° WNW 04:31:22 10° SSW
PAYLOAD A 4.2 04:23:54 10° N 04:28:36 48° WNW 04:32:20 16° SW
Nadezhda 1 Rocket 3.9 04:24:28 10° NNW 04:30:43 66° W 04:36:50 10° S
COSMOS 2428 3.6 04:26:42 10° NW 04:31:16 25° WSW 04:35:50 10° SSW
CBERS-1 4.0 04:27:07 10° N 04:32:13 68° WNW 04:37:18 10° SSW
NOSS 0 Rocket 4.3 04:26:33 10° NW 04:32:18 39° WSW 04:38:00 10° S
ATLAS 5 CENTAUR R/B 3.8 04:29:08 10° NNW 04:32:37 22° NNE 04:36:39 10° ENE
CZ-2C R/B 2.8 04:29:04 10° N 04:33:28 38° WNW 04:36:09 20° WSW
ALOS 3.7 04:30:32 10° NNW 04:33:52 20° WNW 04:34:42 19° WNW
Cosmos 1151 Rocket 3.1 04:31:45 10° SSW 04:36:03 56° WNW 04:40:22 10° N
Cosmos 1733 3.2 04:37:45 10° N 04:41:29 79° E 04:45:09 10° SSE
Cosmos 1666 Rocket 3.6 04:39:53 10° NNW 04:44:10 52° W 04:48:22 10° S
USA 215 3.8 04:38:31 10° SSE 04:44:32 38° SW 04:50:36 10° WNW
Meteor 2-20 Rocket 4.4 04:38:51 10° NNW 04:45:06 67° W 04:51:03 10° S
ARIANE 5 R/B 2.7 04:40:26 10° NNE 04:45:29 72° ESE 04:50:27 10° S
BREEZE-M DEB (TANK) 4.1 04:42:21 17° WSW 04:45:37 69° SSE 05:03:27 10° E
Cosmos 1328 Rocket 3.5 04:42:44 10° S 04:47:10 85° WNW 04:51:35 10° N
Cosmos 2227 Rocket 2.7 04:42:26 10° SSW 04:48:00 62° ESE 04:53:37 10° NE
Cosmos 44 Rocket 3.4 04:43:54 10° SW 04:48:54 87° NW 04:54:09 10° NE
COSMO-SKYMED 1 3.0 04:44:42 10° SSE 04:49:00 67° ENE 04:53:21 10° N
Cosmos 1933 Rocket 4.4 04:45:52 10° N 04:50:09 54° ENE 04:54:24 10° SSE
Genesis I 3.5 04:47:35 10° NW 04:51:17 63° NE 04:54:56 10° SE
Meteor 1-27 Rocket 4.0 04:49:56 10° SSW 04:55:23 50° WNW 05:01:01 10° N
CZ-2D R/B 4.0 04:51:30 10° NNE 04:55:50 65° ESE 05:00:09 10° S
DMSP B5D2-2 4.5 04:51:27 10° SSW 04:56:23 40° W 05:01:22 10° NNW
Helios 1A 3.4 04:56:58 10° SSW 05:00:47 38° W 05:04:38 10° NNW
Cosmos 1269 Rocket 4.4 04:58:37 10° NW 05:03:30 39° WSW 05:08:22 10° S
ATLAS 2AS CENTAUR R/B 4.0 04:57:13 10° WNW 05:03:33 30° N 05:09:38 10° NE
IRS-P3 4.2 04:58:53 10° NNE 05:04:16 90° W 05:09:37 10° SSW
Meteor 1-19 Rocket 4.3 04:59:31 10° SSW 05:04:55 52° WNW 05:10:15 10° N
Cosmos 1238 4.1 05:03:49 10° NNW 05:06:53 60° W 05:09:52 10° S
Cosmos 1709 Rocket 4.0 05:01:46 10° SSW 05:08:07 72° WNW 05:14:30 10° N
Cosmos 1805 3.1 05:04:30 10° NNW 05:08:17 76° W 05:12:03 10° S
Cosmos 1140 Rocket 3.6 05:06:57 10° NNW 05:12:13 89° ENE 05:17:28 10° SSE
Cosmos 1633 Rocket 3.7 05:08:41 10° NNW 05:12:40 34° W 05:16:37 10° SSW
Cosmos 1484 Rocket 3.5 05:11:13 10° N 05:14:23 29° WNW 05:17:32 10° SW
Meteor 2-4 Rocket 3.8 05:09:12 10° SSW 05:15:06 83° WNW 05:20:56 10° NNE
ATLAS CENTAUR R/B 0.9 05:11:57 10° NW 05:15:32 68° SW 05:19:05 10° SSE
YAOGAN 6 4.4 05:16:00 10° NNW 05:17:35 13° WNW 05:19:09 10° W
H-2A R/B 2.2 05:16:04 10° NNE 05:21:34 84° WNW 05:26:58 10° SSW
Cosmos 1745 Rocket 4.5 05:16:31 10° SW 05:22:28 41° WNW 05:28:29 10° N
Meteor 1-18 Rocket 4.3 05:20:30 10° SSW 05:26:21 73° WNW 05:32:07 10° N
SAR-Lupe-2 4.4 05:25:47 10° NNE 05:29:20 56° ESE 05:32:51 10° S
PSLV R/B 3.9 05:25:21 10° NNE 05:29:30 67° ESE 05:33:37 10° S
Cosmos 1869 Rocket 3.7 05:26:58 10° N 05:31:18 79° ENE 05:35:38 10° SSE
